Location: Ocean City
(38.3360°N, 75.0850°W)
Time: 06:26:14
(UTC-04:00)

Hubble Space Telescope - Visible Passes

Search period start: 21 March 2019 00:00
Search period end: 31 March 2019 00:00
Orbit: 537 x 540 km, 28.5° (Epoch: 20 March)

Date Brightness Start Highest point End Pass type
(mag) Time Alt. Az. Time Alt. Az. Time Alt. Az.
24 Mar 3.1 21:02:28 10° SSW 21:03:27 13° SSW 21:03:27 13° SSW visible
25 Mar 2.7 20:51:37 10° SSW 20:53:48 17° S 20:53:48 17° S visible
26 Mar 2.5 20:40:52 10° SW 20:43:47 19° S 20:44:05 19° SSE visible
27 Mar 2.4 20:30:10 10° SW 20:33:12 20° S 20:34:19 18° SSE visible
28 Mar 2.5 20:19:31 10° SW 20:22:37 20° S 20:24:30 15° SE visible
29 Mar 2.5 20:08:55 10° SW 20:12:02 21° S 20:14:40 12° SE visible
30 Mar 2.6 19:58:21 10° SW 20:01:27 20° S 20:04:33 10° SE visible
30 Mar 3.5 21:39:52 10° SW 21:40:09 11° SW 21:40:09 11° SW visible
